This demonstration page uses our WeatherBlox Daily Observations layout. Learn more.

Left ArrowRight Arrow

34.74481, -87.66753

Hourly Observations for January 8, 2020

Temp ( °F °C ) Dew Point ( °F °C ) Humidity (%) Winds ( mph kmh ) Pressure ( in mb ) Visibility ( mi km ) Precip ( " mm )
12:53 am 00:53 Clear 35 1.7 30 -1.1 82 82 Calm 30.33 1027 10 16 0.00 0.00
1:53 am 01:53 Clear 35 1.7 30 -1.1 82 82 Calm 30.35 1028 10 16 0.00 0.00
2:53 am 02:53 Clear 34 1.1 30 -1.1 85 85 Calm 30.35 1028 10 16 0.00 0.00
3:53 am 03:53 Clear 32 0 29 -1.7 88 88 Calm 30.36 1028 10 16 0.00 0.00
4:53 am 04:53 Clear 34 1.1 29 -1.7 82 82 Calm 30.38 1029 10 16 0.00 0.00
5:53 am 05:53 Clear 32 0 28 -2.2 85 85 Calm 30.40 1030 10 16 0.00 0.00
6:53 am 06:53 Clear 31 -0.6 28 -2.2 89 89 E 3 6 30.40 1030 10 16 0.00 0.00
7:53 am 07:53 Sunny 35 1.7 30 -1.1 82 82 Calm 30.42 1030 10 16 0.00 0.00
8:53 am 08:53 Sunny 44 6.7 32 0 63 63 Calm 30.44 1031 10 16 0.00 0.00
9:53 am 09:53 Sunny 51 10.6 32 0 48 48 Calm 30.45 1031 10 16 0.00 0.00
10:53 am 10:53 Sunny 57 13.9 29 -1.7 34 34 Calm 30.43 1031 10 16 0.00 0.00
11:53 am 11:53 Sunny 58 14.4 27 -2.8 31 31 W 3 6 30.41 1030 10 16 0.00 0.00
12:53 pm 12:53 Sunny 60 15.6 26 -3.3 27 27 VRB 3 6 30.39 1029 10 16 0.00 0.00
1:53 pm 13:53 Sunny 62 16.7 25 -3.9 24 24 Calm 30.37 1029 10 16 0.00 0.00
2:53 pm 14:53 Sunny 62 16.7 25 -3.9 24 24 SSE 3 6 30.38 1029 10 16 0.00 0.00
3:53 pm 15:53 Sunny 59 15 30 -1.1 33 33 E 5 7 30.39 1029 10 16 0.00 0.00
4:53 pm 16:53 Sunny 53 11.7 32 0 45 45 E 5 7 30.38 1029 10 16 0.00 0.00
5:53 pm 17:53 Clear 51 10.6 30 -1.1 44 44 ESE 6 9 30.39 1029 10 16 0.00 0.00
6:53 pm 18:53 Clear 46 7.8 30 -1.1 54 54 ESE 5 7 30.39 1029 10 16 0.00 0.00
7:53 pm 19:53 Clear 48 8.9 29 -1.7 48 48 SSE 5 7 30.39 1029 10 16 0.00 0.00
8:53 pm 20:53 Clear 42 5.6 30 -1.1 62 62 SE 6 9 30.39 1029 10 16 0.00 0.00
9:53 pm 21:53 Clear 43 6.1 30 -1.1 60 60 SE 5 7 30.38 1029 10 16 0.00 0.00
10:53 pm 22:53 Clear 44 6.7 28 -2.2 53 53 SE 6 9 30.36 1028 10 16 0.00 0.00
11:53 pm 23:53 Clear 40 4.4 29 -1.7 65 65 ESE 5 7 30.36 1028 10 16 0.00 0.00

Powered by AerisWeather